Volver al catálogo

USA 125 DEB

ActivoHEO
NORAD 23947·DEBRIS·🇺🇸 United States

Lanzado Jul 3, 1996 desde Cape Canaveral Space Force Station

Loading…

Próximos Pases (próximas 24 horas)

TLE

ActualizadoSource: Space-Track

Época: Sep 13, 2026, 09:04 UTC

1 23947U 96038C   26256.37815272  .00000412  00000-0  12705-3 0  9992
2 23947  55.3108 163.4149 4991675 250.1168  50.9745  5.57417529145499

Sigue USA 125 DEB en tiempo real con AllMySat

Download on the App Store